| time (UTC) | temp F | wind direction | speed MPH | gust MPH | rain 1hr in | rain 24hr in | rain mn in | humidity % | barometer mb |
| 20260502170321 | 68 | 346 | 3.0 | 8.0 | 0.00 | 0.43 | 0.00 | 68 | 1023.3 |
| 20260502164323 | 67 | 41 | 3.0 | 13.0 | 0.00 | 0.43 | 0.00 | 69 | 1023.3 |
| 20260502163334 | 67 | 2 | 4.0 | 9.0 | 0.00 | 0.43 | 0.00 | 68 | 1023.4 |
| 20260502162325 | 66 | 44 | 4.0 | 10.0 | 0.00 | 0.43 | 0.00 | 66 | 1023.4 |
| 20260502161335 | 65 | 20 | 5.0 | 8.0 | 0.00 | 0.43 | 0.00 | 68 | 1023.6 |
| 20260502160325 | 66 | 252 | 2.0 | 9.0 | 0.00 | 0.43 | 0.00 | 67 | 1023.5 |
| 20260502152339 | 63 | 19 | 0.0 | 7.0 | 0.00 | 0.60 | 0.00 | 69 | 1023.5 |
| 20260502151330 | 63 | 349 | 1.0 | 7.0 | 0.00 | 0.60 | 0.00 | 74 | 1023.5 |
| 20260502150341 | 63 | 6 | 2.0 | 7.0 | 0.00 | 0.60 | 0.00 | 73 | 1023.5 |
| 20260502130336 | 53 | 330 | 1.0 | 4.0 | 0.00 | 0.90 | 0.00 | 91 | 1022.3 |
| 20260502123329 | 50 | 295 | 0.0 | 2.0 | 0.00 | 0.90 | 0.00 | 94 | 1021.9 |
| 20260502122335 | 49 | 309 | 0.0 | 3.0 | 0.00 | 0.90 | 0.00 | 95 | 1021.7 |
| 20260502121325 | 48 | 297 | 0.0 | 3.0 | 0.00 | 0.90 | 0.00 | 96 | 1021.5 |
| 20260502120337 | 48 | 262 | 0.0 | 1.0 | 0.00 | 0.90 | 0.00 | 96 | 1021.3 |
| 20260502115328 | 48 | 262 | 0.0 | 2.0 | 0.00 | 1.03 | 0.00 | 96 | 1021.1 |
| 20260502114339 | 48 | 262 | 0.0 | 1.0 | 0.00 | 1.03 | 0.00 | 96 | 1020.8 |
| 20260502113351 | 48 | 262 | 0.0 | 2.0 | 0.00 | 1.03 | 0.00 | 96 | 1020.7 |
| 20260502112340 | 48 | 289 | 0.0 | 2.0 | 0.00 | 1.03 | 0.00 | 96 | 1020.7 |
| 20260502111322 | 48 | 281 | 0.0 | 2.0 | 0.00 | 1.03 | 0.00 | 96 | 1020.6 |
| 20260502110332 | 48 | 278 | 0.0 | 4.0 | 0.00 | 1.03 | 0.00 | 96 | 1020.3 |
| 20260502105323 | 48 | 259 | 1.0 | 3.0 | 0.00 | 1.12 | 0.00 | 96 | 1020.0 |
| 20260502104334 | 48 | 319 | 0.0 | 1.0 | 0.00 | 1.12 | 0.00 | 96 | 1019.6 |
| 20260502103325 | 49 | 319 | 0.0 | 2.0 | 0.00 | 1.12 | 0.00 | 95 | 1019.2 |
| 20260502102337 | 49 | 319 | 0.0 | 4.0 | 0.00 | 1.12 | 0.00 | 95 | 1019.2 |
| 20260502101328 | 49 | 329 | 1.0 | 4.0 | 0.00 | 1.12 | 0.00 | 96 | 1019.2 |
| 20260502100340 | 49 | 352 | 1.0 | 5.0 | 0.00 | 1.12 | 0.00 | 96 | 1019.1 |
| 20260502091327 | 49 | 326 | 2.0 | 5.0 | 0.00 | 1.13 | 0.00 | 96 | 1019.2 |
| 20260502090338 | 49 | 323 | 2.0 | 3.0 | 0.00 | 1.13 | 0.00 | 96 | 1019.1 |
| 20260502071326 | 50 | 335 | 0.0 | 3.0 | 0.00 | 1.18 | 0.00 | 96 | 1019.0 |
| 20260502070336 | 50 | 333 | 0.0 | 3.0 | 0.00 | 1.18 | 0.00 | 97 | 1019.0 |
| 20260502065327 | 50 | 338 | 1.0 | 3.0 | 0.00 | 1.19 | 0.00 | 97 | 1019.1 |
| 20260502064339 | 51 | 330 | 1.0 | 3.0 | 0.00 | 1.19 | 0.00 | 96 | 1019.0 |
| 20260502063330 | 51 | 308 | 0.0 | 3.0 | 0.00 | 1.19 | 0.00 | 96 | 1018.9 |
| 20260502062341 | 51 | 312 | 0.0 | 3.0 | 0.00 | 1.19 | 0.00 | 96 | 1018.9 |
| 20260502061332 | 51 | 335 | 0.0 | 2.0 | 0.00 | 1.19 | 0.00 | 96 | 1018.9 |
| 20260502060323 | 52 | 335 | 1.0 | 2.0 | 0.00 | 1.19 | 0.00 | 96 | 1018.8 |
| 20260502055333 | 52 | 343 | 2.0 | 4.0 | 0.00 | 1.20 | 0.00 | 96 | 1019.0 |
| 20260502054343 | 52 | 325 | 2.0 | 4.0 | 0.00 | 1.20 | 0.00 | 96 | 1019.1 |
| 20260502053334 | 52 | 323 | 1.0 | 3.0 | 0.00 | 1.20 | 0.00 | 96 | 1019.1 |
| 20260502052340 | 52 | 333 | 2.0 | 3.0 | 0.00 | 1.20 | 0.00 | 95 | 1019.0 |
| 20260502051322 | 52 | 326 | 1.0 | 3.0 | 0.00 | 1.20 | 0.00 | 95 | 1018.9 |
| 20260502050342 | 52 | 328 | 2.0 | 3.0 | 0.00 | 1.20 | 0.00 | 95 | 1018.8 |
| 20260502045324 | 53 | 326 | 0.0 | 2.0 | 0.00 | 1.20 | 1.20 | 95 | 1018.7 |
| 20260502044334 | 53 | 322 | 0.0 | 2.0 | 0.00 | 1.20 | 1.20 | 95 | 1018.8 |
| 20260502043325 | 53 | 326 | 1.0 | 4.0 | 0.00 | 1.20 | 1.20 | 95 | 1018.8 |
| 20260502042334 | 53 | 345 | 1.0 | 3.0 | 0.00 | 1.20 | 1.20 | 95 | 1018.6 |
| 20260502041325 | 54 | 18 | 0.0 | 3.0 | 0.00 | 1.20 | 1.20 | 95 | 1018.6 |
| 20260502040336 | 54 | 331 | 1.0 | 3.0 | 0.00 | 1.20 | 1.20 | 95 | 1018.7 |
| 20260502035327 | 54 | 335 | 0.0 | 3.0 | 0.00 | 1.31 | 1.20 | 96 | 1018.7 |
| 20260502034339 | 54 | 320 | 1.0 | 4.0 | 0.00 | 1.31 | 1.20 | 96 | 1018.8 |
| 20260502033326 | 54 | 356 | 1.0 | 2.0 | 0.00 | 1.31 | 1.20 | 96 | 1018.7 |
| 20260502032337 | 54 | 341 | 1.0 | 3.0 | 0.00 | 1.31 | 1.20 | 96 | 1018.7 |
| 20260502031324 | 54 | 331 | 0.0 | 3.0 | 0.00 | 1.31 | 1.20 | 96 | 1018.7 |
| 20260502030334 | 54 | 333 | 1.0 | 5.0 | 0.00 | 1.31 | 1.20 | 95 | 1018.5 |
| 20260502025323 | 54 | 338 | 1.0 | 4.0 | 0.00 | 1.37 | 1.20 | 95 | 1018.4 |
| 20260502024334 | 54 | 348 | 2.0 | 4.0 | 0.00 | 1.37 | 1.20 | 96 | 1018.2 |
| 20260502023325 | 54 | 353 | 2.0 | 6.0 | 0.00 | 1.37 | 1.20 | 96 | 1018.1 |
| 20260502022336 | 54 | 354 | 4.0 | 6.0 | 0.00 | 1.37 | 1.20 | 95 | 1018.1 |
| 20260502021326 | 54 | 352 | 2.0 | 5.0 | 0.00 | 1.37 | 1.20 | 96 | 1017.9 |
| 20260502020336 | 54 | 349 | 1.0 | 6.0 | 0.00 | 1.37 | 1.20 | 97 | 1017.6 |
| 20260502015347 | 54 | 5 | 4.0 | 7.0 | 0.00 | 1.37 | 1.20 | 97 | 1017.5 |
| 20260502014338 | 54 | 20 | 1.0 | 6.0 | 0.00 | 1.37 | 1.20 | 97 | 1017.3 |
| 20260502013350 | 54 | 11 | 3.0 | 8.0 | 0.00 | 1.37 | 1.20 | 97 | 1017.1 |
| 20260502012331 | 54 | 37 | 5.0 | 10.0 | 0.00 | 1.37 | 1.20 | 98 | 1017.0 |
| 20260502011323 | 53 | 11 | 4.0 | 8.0 | 0.00 | 1.37 | 1.20 | 99 | 1016.8 |
| 20260502010331 | 53 | 32 | 3.0 | 6.0 | 0.00 | 1.37 | 1.20 | 99 | 1016.7 |
| 20260502005322 | 53 | 41 | 3.0 | 7.0 | 0.00 | 1.37 | 1.20 | 99 | 1016.5 |
| 20260502004331 | 53 | 66 | 5.0 | 9.0 | 0.00 | 1.37 | 1.20 | 99 | 1016.3 |
| 20260502003341 | 53 | 15 | 5.0 | 8.0 | 0.00 | 1.37 | 1.20 | 99 | 1016.1 |
| 20260502002332 | 53 | 53 | 4.0 | 8.0 | 0.00 | 1.37 | 1.20 | 99 | 1016.1 |
| 20260502001324 | 53 | 34 | 6.0 | 15.0 | 0.00 | 1.37 | 1.20 | 99 | 1015.9 |
| 20260502000334 | 53 | 20 | 7.0 | 12.0 | 0.00 | 1.37 | 1.20 | 99 | 1015.7 |
| 20260501235326 | 53 | 41 | 6.0 | 13.0 | 0.01 | 1.45 | 1.20 | 99 | 1015.8 |
| 20260501234337 | 53 | 13 | 6.0 | 12.0 | 0.01 | 1.45 | 1.20 | 99 | 1015.8 |
| 20260501233327 | 53 | 23 | 7.0 | 12.0 | 0.01 | 1.45 | 1.20 | 99 | 1015.8 |
| 20260501232340 | 53 | 27 | 6.0 | 12.0 | 0.02 | 1.45 | 1.20 | 99 | 1015.8 |
| 20260501231331 | 53 | 32 | 9.0 | 18.0 | 0.03 | 1.45 | 1.20 | 99 | 1015.2 |
| 20260501230341 | 53 | 16 | 9.0 | 19.0 | 0.05 | 1.45 | 1.20 | 99 | 1015.0 |
| 20260501225332 | 53 | 5 | 9.0 | 16.0 | 0.06 | 1.50 | 1.19 | 99 | 1015.1 |
| 20260501224343 | 54 | 25 | 6.0 | 12.0 | 0.09 | 1.50 | 1.19 | 99 | 1014.9 |
| 20260501223326 | 54 | 342 | 8.0 | 15.0 | 0.10 | 1.50 | 1.19 | 99 | 1014.9 |
| 20260501222346 | 54 | 26 | 8.0 | 15.0 | 0.09 | 1.49 | 1.18 | 99 | 1015.2 |
| 20260501221329 | 54 | 12 | 9.0 | 14.0 | 0.08 | 1.48 | 1.17 | 99 | 1015.4 |
| 20260501220348 | 54 | 355 | 10.0 | 18.0 | 0.06 | 1.46 | 1.15 | 99 | 1015.5 |
| 20260501215330 | 55 | 307 | 10.0 | 16.0 | 0.04 | 1.44 | 1.13 | 99 | 1015.1 |
| 20260501214321 | 55 | 22 | 6.0 | 17.0 | 0.01 | 1.41 | 1.10 | 98 | 1014.9 |
| 20260501213333 | 55 | 29 | 8.0 | 20.0 | 0.00 | 1.40 | 1.09 | 98 | 1014.5 |
| 20260501212324 | 55 | 9 | 12.0 | 19.0 | 0.00 | 1.40 | 1.09 | 99 | 1014.3 |
| 20260501211334 | 55 | 83 | 7.0 | 16.0 | 0.01 | 1.40 | 1.09 | 99 | 1014.0 |
| 20260501210322 | 55 | 15 | 11.0 | 17.0 | 0.01 | 1.40 | 1.09 | 99 | 1013.3 |
| 20260501205334 | 55 | 13 | 10.0 | 20.0 | 0.02 | 1.40 | 1.09 | 99 | 1013.1 |
| 20260501204326 | 55 | 21 | 10.0 | 17.0 | 0.03 | 1.40 | 1.09 | 99 | 1013.0 |
| 20260501203334 | 56 | 5 | 10.0 | 18.0 | 0.04 | 1.40 | 1.09 | 100 | 1012.8 |
| 20260501202324 | 56 | 32 | 8.0 | 14.0 | 0.06 | 1.40 | 1.09 | 99 | 1012.9 |
| 20260501201335 | 56 | 18 | 8.0 | 14.0 | 0.05 | 1.39 | 1.08 | 100 | 1013.0 |
| 20260501200327 | 56 | 27 | 6.0 | 17.0 | 0.04 | 1.38 | 1.07 | 99 | 1012.8 |
| 20260501195337 | 56 | 13 | 6.0 | 15.0 | 0.04 | 1.39 | 1.07 | 99 | 1013.4 |
| 20260501194349 | 56 | 44 | 6.0 | 12.0 | 0.03 | 1.38 | 1.06 | 99 | 1013.2 |
| 20260501193337 | 56 | 324 | 7.0 | 14.0 | 0.04 | 1.37 | 1.05 | 99 | 1013.7 |
| 20260501192348 | 56 | 11 | 5.0 | 13.0 | 0.06 | 1.35 | 1.03 | 99 | 1013.8 |
| 20260501191340 | 56 | 7 | 11.0 | 20.0 | 0.11 | 1.35 | 1.03 | 99 | 1013.2 |
| 20260501190321 | 57 | 27 | 11.0 | 19.0 | 0.25 | 1.35 | 1.03 | 100 | 1012.6 |
| 20260501185333 | 57 | 18 | 8.0 | 16.0 | 0.25 | 1.51 | 1.03 | 100 | 1013.0 |
| 20260501184324 | 57 | 333 | 8.0 | 13.0 | 0.25 | 1.51 | 1.03 | 100 | 1013.2 |
| 20260501183331 | 56 | 11 | 7.0 | 9.0 | 0.24 | 1.49 | 1.01 | 100 | 1014.2 |
| 20260501181330 | 56 | 308 | 4.0 | 6.0 | 0.14 | 1.39 | 0.91 | 100 | 1016.6 |
| 20260501180341 | 56 | 316 | 3.0 | 12.0 | 0.01 | 1.26 | 0.78 | 100 | 1016.3 |
| 20260501175332 | 56 | 335 | 6.0 | 10.0 | 0.01 | 1.26 | 0.78 | 100 | 1014.4 |
| 20260501174323 | 56 | 63 | 8.0 | 16.0 | 0.01 | 1.26 | 0.78 | 99 | 1014.0 |
| 20260501173335 | 56 | 21 | 5.0 | 13.0 | 0.00 | 1.25 | 0.77 | 100 | 1014.0 |
| 20260501172325 | 56 | 13 | 6.0 | 14.0 | 0.00 | 1.25 | 0.77 | 100 | 1013.8 |
| 20260501171337 | 56 | 4 | 7.0 | 15.0 | 0.00 | 1.25 | 0.77 | 100 | 1013.6 |